Hourly Data Report for July 18, 2021

POND INLET A
NUNAVUT
Current Station Operator: NAVCAN

72°41'22.000" N
77°58'08.000" W
61.60 m
2403206
71095
YIO

Download Data

Hourly Data (July 2021)
Hourly Data Report for July 18, 2021
TIME
LST
Temp Definition
°C
Dew Point Definition
°C
Rel Hum Definition
%
Precip. Amount Definition
mm

Wind Dir Definition
10's deg

Wind Spd Definition
km/h
Visibility Definition
km
Stn Press Definition
kPa
Hmdx Definition


Wind Chill Definition


Weather Definition


00:00 4.5 0.5 75 0.0 22 8 16.1 100.50     LegendNANA
01:00 4.7 0.1 72 0.0 24 5 16.1 100.52     LegendNANA
02:00 3.9 0.0 76 0.0 24 5 16.1 100.55     LegendNANA
03:00 4.2 0.1 75 0.0 27 9 16.1 100.53     LegendNANA
04:00 4.5 -0.1 72 0.0 25 9 16.1 100.54     LegendNANA
05:00 5.8 -0.3 65 0.0 6 17 16.1 100.55     LegendNANA
06:00 6.0 -0.7 62 0.0 8 21 16.1 100.54     LegendNANA
07:00 6.9 -0.3 60 0.0 6 32 16.1 100.50     LegendNANA
08:00 6.8 0.2 63 0.0 7 26 16.1 100.52     LegendNANA
09:00 6.9 0.7 65 0.0 6 30 16.1 100.50     LegendNANA
10:00 7.2 0.5 63 0.0 6 34 16.1 100.48     LegendNANA
11:00 6.9 0.3 63 0.0 5 30 16.1 100.49     LegendNANA
12:00 7.1 -0.3 59 0.0 5 34 16.1 100.46     LegendNANA
13:00 7.2 -0.2 59 0.0 5 28 16.1 100.47     LegendNANA
14:00 6.7 0.2 63 0.0 5 30 16.1 100.46     LegendNANA
15:00 6.8 -0.8 58 0.0 5 34 16.1 100.43     LegendNANA
16:00 7.2 -1.8 53 0.0 5 34 16.1 100.42     LegendNANA
17:00 6.9 -2.1 53 0.0 5 22 16.1 100.42     LegendNANA
18:00 6.7 -2.3 53 0.0 6 22 16.1 100.40     LegendNANA
19:00 8.7 -5.5 36 0.0 6 24 16.1 100.36     LegendNANA
20:00 9.4 -6.6 32 0.0 6 22 16.1 100.35     LegendNANA
21:00 9.7 -6.5 31 0.0 6 11 16.1 100.32     LegendNANA
22:00 8.0 -5.9 37 0.0 8 5 16.1 100.30     LegendNANA
23:00 5.8 -2.5 55 0.0 19 9 16.1 100.27     LegendNANA

Notes on Data Quality.

Legend

  • E = Estimated
  • M = Missing
  • NA = Not Available*
  • [empty] = Indicates an unobserved value
Date modified: